Location: Erba
(45.8000°N, 9.2500°E)
Time: 06:06:41
(UTC+01:00)

ISS - Pass Details

Date: 24 February 2020
Orbit: 415 x 423 km, 51.6° (Epoch: 27 February)

Event Time Altitude Azimuth Distance (km) Brightness Sun altitude
Exits shadow 05:09:44 17° 161° (SSE) 1,144 -1.5 -22.0°
Maximum altitude 05:10:47 19° 136° (SE) 1,053 -1.4 -21.8°
Drops below altitude 10° 05:13:17 10° 88° (E) 1,502 0.2 -21.3°
Sets 05:15:46 0° 71° (ENE) 2,372 1.5 -20.9°
